Theta_e
343 357 361 360 359 359 359 357 357 356 357 357 357 357 357 359 358 357 357 355 354 352 349 348 347 347 347 347 349 351 353 352 352 351 351 352 351 346 347 347 348 349 352
350 357 361 360 359 359 359 358 357 357 357 357 355 355 356 357 357 357 356 353 354 349 347 346 346 346 347 348 350 351 350 350 351 351 346 340 341 348 349 346 348 349 352
353 355 355 360 360 359 359 358 356 357 356 355 355 354 355 357 357 356 354 353 350 347 345 345 345 345 346 347 349 348 348 350 353 344 342 333 335 347 352 349 353 350 347
353 353 352 360 361 359 358 357 357 356 355 355 354 354 355 356 357 355 352 350 347 345 344 344 344 343 345 346 346 345 347 348 349 341 333 332 335 344 353 350 350 346 344
352 351 351 360 361 359 357 357 356 356 355 354 354 354 355 356 356 354 352 349 345 344 344 343 342 341 342 344 344 346 347 347 347 337 334 332 337 354 352 350 348 344 342
351 350 356 361 361 360 357 356 356 356 355 354 354 354 354 355 356 354 350 348 346 345 344 344 342 341 341 343 346 347 346 346 344 336 336 333 337 353 349 346 344 341 339
350 350 355 361 361 360 357 357 356 356 356 355 354 354 354 355 355 353 350 348 347 347 346 345 345 345 345 345 345 347 346 346 342 338 336 334 335 352 347 344 340 338 336
348 352 355 360 361 361 358 357 358 358 357 356 355 354 354 354 354 353 351 348 348 348 348 347 349 349 348 348 347 347 346 346 343 339 335 333 335 347 344 340 338 335 332
350 351 353 354 358 361 359 358 358 358 357 357 356 356 355 353 353 353 352 350 348 350 350 349 350 350 350 349 347 346 346 348 345 338 334 332 341 344 341 339 336 333 332
349 350 351 353 353 354 355 358 358 358 357 357 356 355 355 354 352 352 353 352 349 349 349 350 351 352 351 349 347 346 345 344 336 335 334 332 343 342 341 337 335 333 330
345 347 349 350 352 352 351 353 357 356 355 355 354 355 354 349 347 349 349 351 351 351 351 352 353 353 351 348 345 342 339 331 330 333 331 335 344 342 340 337 334 332 330
340 342 345 347 348 348 351 348 349 348 349 350 350 348 349 345 344 346 348 350 350 351 354 355 355 353 350 343 336 333 328 326 327 327 327 337 341 339 338 337 334 331 329
338 341 344 344 345 345 345 344 345 347 345 347 348 346 345 345 343 344 343 343 345 348 348 349 349 346 341 337 332 327 326 326 325 324 324 331 335 339 339 337 335 331 330
334 338 341 343 343 343 343 342 344 346 345 346 346 345 343 341 340 339 339 339 339 341 342 344 343 338 335 329 327 326 326 323 321 320 321 327 329 330 335 337 336 332 330
332 335 339 342 342 342 341 340 342 344 343 344 344 345 344 340 339 338 337 337 338 340 341 340 339 335 327 327 326 325 321 320 319 317 315 322 325 327 330 332 333 332 330
334 333 336 340 341 341 340 338 341 341 342 342 343 343 344 341 339 338 337 337 338 339 339 337 333 327 326 326 323 322 321 318 317 315 314 314 322 326 329 331 332 333 332
335 335 334 337 339 338 338 337 339 339 340 340 341 342 342 342 339 338 337 336 336 336 332 327 326 325 325 323 322 321 319 316 313 313 313 314 315 319 325 329 331 332 332
336 335 335 336 336 336 336 336 338 340 339 339 340 340 342 341 340 338 337 335 332 330 329 328 324 323 323 321 320 319 316 313 312 313 311 311 312 315 317 324 329 331 331
336 336 335 335 334 334 335 335 336 340 339 340 340 340 340 342 341 339 335 332 330 331 328 328 325 324 322 320 319 317 314 311 311 311 310 310 311 311 313 319 323 324 327
337 337 336 335 335 334 334 334 336 337 338 339 338 339 341 341 342 336 332 330 330 328 325 325 324 322 320 318 314 312 310 309 310 308 308 309 310 310 311 312 313 314 318
326 334 334 333 335 334 332 332 333 334 337 335 337 338 338 340 339 333 330 331 331 327 325 323 323 320 315 311 309 308 307 307 307 307 308 308 308 309 309 310 310 311 311
323 326 333 333 333 334 335 336 335 335 333 335 336 336 336 337 335 333 332 331 329 325 324 322 320 313 310 309 307 304 301 304 306 307 307 308 308 307 308 309 310 310 310
323 322 328 332 331 333 335 334 334 334 334 333 334 334 335 336 335 335 335 331 328 324 319 316 315 312 308 307 308 306 299 298 300 305 307 306 307 307 307 308 309 309 310
323 323 326 330 331 334 334 335 335 334 332 332 333 334 334 336 335 335 332 330 326 322 316 317 311 310 310 307 306 306 305 305 301 299 304 306 306 307 308 307 308 308 309
324 324 326 330 332 333 335 336 333 332 330 330 332 332 332 332 333 333 330 326 322 321 319 313 310 310 309 308 306 304 303 303 302 301 299 302 306 308 307 307 308 307 309
328 327 328 330 330 333 333 334 333 333 331 329 330 330 329 330 331 331 328 325 320 317 312 311 312 310 309 308 306 305 304 303 302 299 298 300 301 307 307 308 308 308 308
Wind_Speed
6 9 16 16 17 19 20 19 17 16 15 15 15 15 14 13 13 14 13 12 11 11 11 11 10 10 10 9 9 8 8 7 5 5 4 2 1 3 4 4 5 4 4
13 12 14 14 15 19 19 18 17 16 15 14 14 14 14 13 13 13 12 11 10 10 9 10 9 8 8 8 7 7 7 6 6 7 9 7 6 4 6 5 6 5 4
14 13 13 15 15 17 17 17 17 15 15 14 14 14 13 13 12 12 11 10 10 10 8 8 7 6 6 6 7 6 6 6 8 9 10 6 7 6 8 8 8 8 7
14 11 10 15 15 17 17 16 15 14 13 13 13 13 12 11 11 10 10 9 9 8 7 6 5 4 4 5 6 5 6 8 9 8 5 6 6 10 9 8 9 7 6
11 9 9 15 15 16 17 16 14 13 12 12 12 12 11 10 10 9 8 8 8 7 6 5 3 2 3 4 4 5 7 8 8 6 6 6 5 3 8 8 7 6 5
10 6 11 15 15 15 16 15 14 13 13 13 12 11 11 10 10 9 8 8 8 7 6 4 2 1 2 3 5 5 7 7 6 4 4 6 5 2 7 7 6 5 5
12 7 11 15 15 15 16 15 15 14 13 13 13 12 12 11 10 10 10 9 8 7 6 5 4 3 2 3 4 6 7 8 4 4 3 4 3 5 7 6 6 5 3
13 10 9 16 16 15 15 16 15 14 13 13 13 12 11 11 11 11 10 10 9 8 7 7 5 3 4 4 4 5 7 7 4 3 3 2 5 6 6 6 5 4 2
9 12 8 10 13 17 16 16 15 14 14 14 13 12 12 12 12 11 10 10 10 8 7 6 5 4 5 5 4 6 7 7 2 2 3 2 7 8 7 6 6 5 4
11 12 12 8 10 10 10 16 15 15 15 14 13 13 12 12 12 12 9 10 10 9 8 7 6 6 5 4 4 5 7 5 3 4 3 3 9 9 9 9 7 6 5
10 11 12 12 8 7 8 11 15 18 16 14 13 13 10 4 5 7 8 10 10 10 9 8 7 6 4 4 4 5 3 2 4 3 2 6 11 10 10 9 9 8 7
11 11 11 12 12 8 8 8 7 6 6 6 6 6 4 5 4 6 8 11 11 11 10 9 7 6 5 1 1 2 1 2 2 3 1 4 8 10 11 10 10 10 9
17 9 12 10 8 8 8 4 3 4 3 4 6 5 4 4 3 2 2 2 2 7 2 3 2 1 3 2 1 1 1 2 2 2 4 7 10 13 13 12 12 12 11
11 15 12 11 9 9 6 5 6 5 4 5 5 5 4 3 3 4 3 3 3 3 4 4 3 2 1 2 0 0 2 2 1 2 3 7 8 11 13 14 13 13 12
13 14 15 12 12 10 8 4 4 6 5 6 5 6 5 5 5 4 5 3 4 3 4 4 3 2 2 1 1 2 3 2 3 1 2 9 10 11 11 12 12 12 13
15 15 14 14 13 10 10 7 6 5 5 4 5 7 8 6 6 5 5 4 4 4 3 3 4 4 2 1 2 1 2 3 4 4 4 5 12 12 13 13 12 13 13
16 13 13 13 12 11 12 9 6 5 5 6 7 7 8 8 8 7 5 2 3 3 5 3 2 2 3 2 1 2 2 3 3 3 3 3 6 9 9 8 12 12 13
12 14 14 13 14 13 12 9 7 6 6 7 6 6 9 9 9 7 4 4 4 4 4 2 3 1 1 1 0 2 1 2 2 3 4 4 4 3 5 8 8 9 11
14 13 13 12 14 14 11 7 6 6 7 7 5 6 9 10 10 6 2 5 6 0 2 1 1 0 1 1 2 1 2 3 3 3 5 5 6 5 4 9 11 9 7
12 11 11 11 13 11 7 4 4 4 7 6 7 7 9 8 6 7 7 7 6 0 4 2 3 1 1 1 1 2 3 3 1 2 3 3 4 6 6 6 5 6 12
10 12 13 11 12 9 6 7 6 9 8 6 7 9 8 5 7 9 8 8 8 9 8 5 3 3 1 1 1 1 1 3 2 3 3 3 3 4 5 5 4 4 5
15 16 12 14 11 12 10 7 4 5 4 2 3 3 5 7 10 11 11 4 6 3 5 3 4 2 1 0 3 1 2 2 2 2 2 2 3 2 2 3 4 5 5
14 14 15 14 10 12 9 4 3 2 1 3 2 3 4 8 11 12 10 10 8 5 4 4 4 5 3 1 1 3 2 3 2 2 1 2 3 2 3 3 3 3 3
11 8 10 11 11 9 11 10 11 8 7 3 3 3 3 1 4 5 5 7 9 6 5 5 4 3 3 3 1 1 1 3 3 2 2 3 4 5 5 3 4 6 6
4 4 6 10 12 9 11 10 7 4 3 3 2 5 5 3 6 4 4 5 3 4 4 6 4 4 2 3 3 3 2 1 1 3 3 4 3 6 5 6 5 6 7
1 6 6 8 7 6 8 6 8 7 6 3 3 4 5 6 5 6 7 7 6 4 5 4 4 5 4 3 2 3 3 3 3 4 5 7 6 5 5 4 6 6 7
Wind_Direction
197 160 162 157 151 137 133 130 126 122 120 122 126 128 129 128 129 130 131 128 123 123 118 114 109 101 95 93 93 94 83 75 60 51 32 19 209 183 161 130 119 128 175
146 151 163 159 153 138 134 132 129 129 131 132 133 133 133 136 136 136 135 132 129 123 121 118 112 107 101 96 93 81 72 55 39 27 27 17 348 288 190 154 131 128 117
148 152 158 163 152 139 137 134 134 136 138 140 140 140 142 143 141 140 136 133 130 130 131 122 115 106 95 90 79 64 53 42 35 32 19 0 343 330 198 165 142 130 110
146 151 157 161 151 142 139 138 139 141 142 143 143 144 147 147 145 142 138 135 138 141 140 136 125 105 79 63 60 44 34 31 44 27 12 354 337 319 168 158 141 126 104
143 145 160 156 151 146 144 145 146 149 151 152 154 154 155 155 149 148 152 149 158 157 157 153 147 116 58 37 21 16 15 19 42 22 6 352 358 78 138 143 126 103 82
140 127 164 156 151 150 151 153 155 160 163 168 167 164 167 165 159 164 171 174 181 174 181 181 201 249 349 352 352 357 356 357 42 22 1 346 349 135 128 131 119 96 67
149 147 159 158 155 160 161 163 167 173 176 177 175 176 178 176 175 176 188 191 192 194 200 214 224 252 295 323 333 340 341 339 19 1 344 335 303 134 141 136 127 110 81
154 159 162 163 163 168 170 175 179 181 180 182 185 185 185 187 189 191 197 202 206 210 215 226 236 262 286 302 310 319 326 330 343 315 308 301 242 178 155 149 143 136 138
153 168 170 171 175 176 179 184 184 182 187 190 192 191 191 197 199 202 206 214 218 225 231 244 255 262 272 287 308 324 322 318 331 291 287 269 221 187 175 177 181 189 193
165 176 184 184 182 181 183 191 190 191 194 196 196 199 199 205 208 211 214 228 230 236 241 250 256 261 270 289 311 319 315 5 342 302 282 261 205 193 197 199 202 200 208
181 186 191 193 195 187 185 197 197 201 200 202 204 206 206 200 215 219 227 231 242 248 251 248 249 252 257 275 303 317 1 343 317 307 292 230 199 211 215 215 217 213 216
196 199 193 196 198 190 196 195 194 201 199 200 202 200 193 200 210 220 233 244 247 251 253 249 247 246 266 252 294 0 6 338 332 335 316 266 231 247 243 233 229 225 222
201 193 197 196 193 192 203 183 184 193 187 198 202 191 202 202 217 225 235 254 273 263 257 258 252 244 251 246 215 356 9 16 20 349 317 293 273 266 258 252 232 227 222
194 205 198 195 195 198 197 189 196 193 199 203 206 192 193 203 209 220 227 223 227 229 238 223 227 223 225 147 212 20 42 49 339 305 313 315 305 299 263 257 234 227 227
207 205 204 191 198 199 202 197 190 204 203 209 193 199 197 204 216 207 229 213 222 208 220 208 210 195 174 173 109 85 48 8 340 6 314 309 308 299 282 262 245 227 234
210 211 198 197 200 192 203 204 204 205 210 199 206 210 204 207 217 210 217 219 226 209 208 199 191 161 165 167 129 58 36 12 359 338 315 309 303 294 286 273 255 228 239
210 204 199 195 193 197 204 209 205 201 201 210 216 205 204 205 216 217 215 220 244 219 168 144 109 122 147 162 80 21 9 345 318 336 2 347 320 303 301 301 259 245 241
217 205 193 193 194 199 203 204 205 201 202 214 214 203 207 207 209 214 201 222 67 56 349 42 146 184 142 120 76 242 260 263 307 18 15 3 345 336 330 339 338 287 264
210 214 198 194 194 199 202 204 211 210 212 221 213 209 213 212 211 198 88 101 103 19 222 272 39 161 193 195 221 281 313 344 345 5 13 12 17 20 25 29 34 19 356
205 204 216 196 200 191 180 175 199 206 218 207 213 215 218 220 202 120 119 116 104 242 242 185 271 127 162 219 335 326 335 326 4 39 25 46 36 41 44 48 38 20 17
195 198 196 184 196 170 177 185 206 223 227 223 225 223 214 202 144 132 137 159 143 215 187 172 153 212 128 38 57 348 353 18 47 61 37 71 38 19 29 35 21 9 351
195 205 188 197 184 192 196 209 197 196 217 194 194 198 172 164 152 158 166 147 128 193 129 193 178 154 162 336 114 103 1 339 320 10 14 3 1 331 354 357 359 4 354
201 191 193 191 187 194 192 120 102 97 131 139 171 147 182 169 177 175 165 135 155 157 165 188 182 170 170 126 176 146 147 231 310 325 341 303 305 290 263 283 304 272 269
219 170 180 173 186 197 175 181 199 207 211 174 160 143 167 77 114 148 130 141 157 147 160 208 156 165 141 160 164 133 92 152 189 299 295 289 257 250 244 252 254 251 253
180 168 161 166 199 185 196 195 181 169 136 120 118 132 131 126 94 102 96 110 130 153 182 151 156 164 163 154 173 161 183 181 171 189 245 269 279 255 230 228 234 251 265
131 137 146 171 205 184 180 173 170 166 163 163 202 186 185 149 142 159 169 161 164 177 160 168 170 166 177 155 158 183 193 183 196 202 240 259 247 248 242 250 245 245 262